Overview Statistics Trail Chart Weather Telemetry Raw packets
 

This is the latest recevied weather packets stored in our database for station/object N0NB. If no packets are shown the sender has not sent any weather packets the latest 10 day(s).

<< 33 34 35 36 37 38 39 >>
Time Temp. Humidity Pressure Rain* Wind** Luminosity Snow
1788148832 25.56° C 81% 1008.4 hPa 0 mm - 0 W/m² -
1788148216 26.11° C 79% 1008.5 hPa 0 mm - 0 W/m² -
1788147616 26.11° C 78% 1008.5 hPa 0 mm - 0 W/m² -
1788147016 26.67° C 76% 1008.4 hPa 0 mm - 0 W/m² -
1788146416 27.22° C 76% 1008.5 hPa 0 mm - 0 W/m² -
1788145816 27.22° C 74% 1008.4 hPa 0 mm - 0 W/m² -
1788145216 27.22° C 76% 1008.4 hPa 0 mm - 0 W/m² -
1788144616 27.22° C 78% 1008.4 hPa 0 mm - 0 W/m² -
1788144015 26.11° C 81% 1008.1 hPa 0 mm - 0 W/m² -
1788143416 26.11° C 83% 1007.9 hPa 0 mm - 0 W/m² -
1788142815 26.67° C 82% 1007.7 hPa 0 mm - 0 W/m² -
1788142216 26.67° C 81% 1007.6 hPa 0 mm - 0 W/m² -
1788141615 26.67° C 82% 1007.4 hPa 0 mm - 0 W/m² -
1788141015 27.22° C 83% 1007.3 hPa 0 mm - 0 W/m² -
1788140415 27.78° C 82% 1007.2 hPa 0 mm - 0 W/m² -
1788139815 28.89° C 78% 1007 hPa 0 mm - 0 W/m² -
1788139215 30° C 75% 1007 hPa 0 mm - 0 W/m² -
1788138615 30.56° C 74% 1007 hPa 0 mm - 0 W/m² -
1788138015 31.11° C 71% 1007 hPa 0 mm - 3 W/m² -
1788137415 31.67° C 71% 1007 hPa 0 mm - 9 W/m² -
1788136815 32.22° C 71% 1007.2 hPa 0 mm - 23 W/m² -
1788136215 32.78° C 68% 1007.1 hPa 0 mm - 36 W/m² -
1788135615 33.33° C 67% 1007.2 hPa 0 mm - 55 W/m² -
1788135015 33.33° C 64% 1007.2 hPa 0 mm - 79 W/m² -
1788134417 33.89° C 63% 1007.2 hPa 0 mm - 105 W/m² -

* Rain latest hour (hover to see other rain measurements)
** Current wind speed in m/s (hover to see current wind gust speed)